Location: Ahausen
(50.4985°N, 8.2722°E)
Time: 11:24:43
(UTC+00:00)

Cosmos 2026 Rocket - Pass Details

Date: 18 September 2020
Orbit: 940 x 1000 km, 82.9° (Epoch: 30 October)

Event Time Altitude Azimuth Distance (km) Brightness Sun altitude
Rises 19:55:19 0° 350° (N) 3,714 7.7 -22.2°
Reaches altitude 10° 19:57:51 10° 351° (N) 2,768 6.9 -22.5°
Maximum altitude 20:04:14 88° 81° (E) 1,007 4.0 -23.4°
Enters shadow 20:06:57 38° 170° (S) 1,488 4.6 -23.7°
